Hourly Data Report for October 26, 2016

All times are specified in Local Standard Time (LST). Add 1 hour to adjust for Daylight Saving Time where and when it is observed.

CLYDE RIVER A
NUNAVUT

70°29'09.000" N
68°31'01.000" W
26.50 m
2400804
71090
YCY

Download Data

Hourly Data (October 2016)
Hourly Data Report for October 26, 2016
Temp Definition
°C
Dew Point Temp Definition
°C
Rel Hum Definition
%
Wind Dir Definition
10's deg

Wind Spd Definition
km/h
Visibility Definition
km
Stn Press Definition
kPa
Hmdx Definition


Wind Chill Definition


Weather Definition


TIME
00:00 Legend Double Dagger -11.5 -17.8 60 26 15 16.1 101.06   -19 LegendNANA
01:00 Legend Double Dagger -10.6 -17.8 56 27 9 16.1 101.03   -16 LegendNANA
02:00 Legend Double Dagger -12.0 -18.3 60 25 8 16.1 101.03   -17 LegendNANA
03:00 Legend Double Dagger -12.0 -18.0 61 24 11 16.1 101.03   -18 LegendNANA
04:00 Legend Double Dagger -10.1 -16.6 60 26 11 16.1 101.02   -16 LegendNANA
05:00 Legend Double Dagger -10.3 -16.7 60 26 11 16.1 101.00   -16 LegendNANA
06:00 Legend Double Dagger -10.9 -16.2 65 28 11 16.1 100.96   -17 LegendNANA
07:00 Legend Double Dagger -9.7 -15.1 65 23 5 16.1 100.93   -13 LegendNANA
08:00 Legend Double Dagger -12.1 -16.6 69 27 5 16.1 100.88   -15 LegendNANA
09:00 Legend Double Dagger -7.1 -14.6 56 25 17 16.1 100.83   -14 LegendNANA
10:00 Legend Double Dagger -6.4 -11.7 66 20 15 16.1 100.82   -12 LegendNANA
11:00 Legend Double Dagger -6.8 -11.5 70 23 21 16.1 100.76   -14 LegendNANA
12:00 Legend Double Dagger -6.8 -11.4 70 24 39 16.1 100.70   -16 LegendNANA
13:00 Legend Double Dagger -7.1 -11.8 69 24 22 16.1 100.71   -15 LegendNANA
14:00 Legend Double Dagger -7.5 -12.1 70 25 26 16.1 100.71   -16 LegendNANA
15:00 Legend Double Dagger -7.8 -13.0 66 28 22 16.1 100.70   -15 LegendNANA
16:00 Legend Double Dagger -8.3 -13.2 68 25 11 16.1 100.71   -14 LegendNANA
17:00 Legend Double Dagger -8.0 -12.8 69 24 9 16.1 100.67   -13 LegendNANA
18:00 Legend Double Dagger -7.3 -14.1 59 25 5 16.1 100.67   -10 LegendNANA
19:00 Legend Double Dagger -10.2 -15.1 68 36 8 16.1 100.67   -15 LegendNANA
20:00 Legend Double Dagger -10.2 -15.6 65 28 4 16.1 100.64   -13 LegendNANA
21:00 Legend Double Dagger -11.8 -16.1 71 30 9 16.1 100.63   -17 LegendNANA
22:00 Legend Double Dagger -11.1 -16.5 65 28 5 16.1 100.62   -14 LegendNANA
23:00 Legend Double Dagger -11.6 -16.8 66 27 5 16.1 100.59   -15 LegendNANA

Notes on Data Quality.

Legend

  • E = Estimated
  • M = Missing
  • NA = Not Available
  • ‡ = Partner data that is not subject to review by the National Climate Archives
Date modified: